Hourly Data Report for September 02, 2017

All times are specified in Local Standard Time (LST). Add 1 hour to adjust for Daylight Saving Time where and when it is observed.

GJOA HAVEN A
NUNAVUT

68°38'08.000" N
95°51'01.000" W
46.90 m
2302337
71597
YHK

Download Data

Hourly Data (September 2017)
Hourly Data Report for September 2, 2017
Temp Definition
°C
Dew Point Temp Definition
°C
Rel Hum Definition
%
Wind Dir Definition
10's deg

Wind Spd Definition
km/h
Visibility Definition
km
Stn Press Definition
kPa
Hmdx Definition


Wind Chill Definition


Weather Definition


TIME
00:00 Legend Double Dagger 1.7 -0.2 87 8 26 16.1 100.62     LegendNANA
01:00 Legend Double Dagger 1.8 0.0 88 6 30 16.1 100.64     LegendNANA
02:00 Legend Double Dagger 1.9 0.0 87 6 30 16.1 100.65     LegendNANA
03:00 Legend Double Dagger 1.8 0.0 88 5 26 16.1 100.67     LegendNANA
04:00 Legend Double Dagger 1.5 0.2 91 6 22 16.1 100.70     LegendNANA
05:00 Legend Double Dagger 1.8 0.2 89 5 26 16.1 100.71     LegendNANA
06:00 Legend Double Dagger 2.0 0.1 87 6 28 16.1 100.72     LegendNANA
07:00 Legend Double Dagger 1.8 0.2 89 6 26 16.1 100.75     LegendNANA
08:00 Legend Double Dagger 2.0 0.3 88 6 26 16.1 100.74     LegendNANA
09:00 Legend Double Dagger 1.9 0.2 88 6 24 16.1 100.74     LegendNANA
10:00 Legend Double Dagger 1.9 0.0 87 5 26 16.1 100.74     LegendNANA
11:00 Legend Double Dagger 2.4 0.2 85 5 22 16.1 100.72     LegendNANA
12:00 Legend Double Dagger 2.4 0.0 84 4 24 16.1 100.75     LegendNANA
13:00 Legend Double Dagger 2.8 0.1 82 5 26 16.1 100.74     LegendNANA
14:00 Legend Double Dagger 2.8 0.4 84 5 21 16.1 100.77     LegendNANA
15:00 Legend Double Dagger 3.2 0.3 81 4 26 16.1 100.77     LegendNANA
16:00 Legend Double Dagger 3.4 0.7 82 4 22 16.1 100.77     LegendNANA
17:00 Legend Double Dagger 3.2 0.8 84 4 21 16.1 100.76     LegendNANA
18:00 Legend Double Dagger 2.6 0.3 85 5 15 16.1 100.76     LegendNANA
19:00 Legend Double Dagger 0.9 -0.4 91 3 13 16.1 100.77     LegendNANA
20:00 Legend Double Dagger 1.0 0.1 94 2 17 16.1 100.78     LegendNANA
21:00 Legend Double Dagger 0.5 -0.1 96 2 22 16.1 100.75     LegendNANA
22:00 Legend Double Dagger 0.1 -0.5 96 2 21 16.1 100.75     LegendNANA
23:00 Legend Double Dagger 0.5 -0.1 96 3 17 16.1 100.73     LegendNANA

Notes on Data Quality.

Legend

  • E = Estimated
  • M = Missing
  • NA = Not Available
  • ‡ = Partner data that is not subject to review by the National Climate Archives
Date modified: